Location: Albany
(35.0170°S, 117.8920°E)
Time: 10:19:35
(UTC+08:00)

S-56A Canister/Altair - Pass Details

Date: 26 January 2021
Orbit: 631 x 2501 km, 38.9° (Epoch: 02 March)

Event Time Altitude Azimuth Distance (km) Brightness Sun altitude
Rises 16:47:02 0° 259° (WSW) 6,062 13.3 29.5°
Reaches altitude 10° 16:50:54 10° 257° (WSW) 5,136 13.3 28.7°
Maximum altitude 17:06:22 81° 169° (SSE) 2,428 10.5 25.6°
Drops below altitude 10° 17:19:18 10° 81° (E) 4,394 10.9 22.9°
Sets 17:22:20 0° 79° (E) 5,178 11.2 22.3°
